FW6317 Weather Reports


Display with metric or nautical units.
time (UTC)temp
F
wind
direction
speed
MPH
gust
MPH
rain 1hr
in
rain 24hr
in
rain mn
in
humidity
%
barometer
mb
20220126051551 43 0 0.0 0.0 0.00 0.03 0.03 92 1023.6
20220126050023 43 0 0.0 0.0 0.00 0.03 0.03 92 1023.3
20220126044539 44 0 0.0 0.0 0.00 0.04 0.03 91 1023.1
20220126043040 45 329 0.0 1.0 0.00 0.04 0.03 91 1022.9
20220126041533 46 0 0.0 4.0 0.00 0.04 0.03 90 1023.0
20220126040030 47 0 0.0 3.0 0.00 0.04 0.03 89 1022.5
20220126034550 47 48 1.0 4.0 0.00 0.05 0.03 88 1022.2
20220126033029 48 58 2.0 5.0 0.00 0.05 0.03 87 1021.4
20220126031546 48 36 2.0 9.0 0.00 0.05 0.03 88 1021.0
20220126030111 49 76 2.0 8.0 0.00 0.05 0.03 87 1021.4
20220126024537 50 344 2.0 6.0 0.00 0.09 0.03 87 1021.2
20220126023025 51 0 0.0 4.0 0.00 0.09 0.03 85 1021.2
20220126021523 51 344 1.0 5.0 0.00 0.09 0.03 85 1021.3
20220126020133 51 54 1.0 9.0 0.00 0.09 0.03 85 1021.1
20220126014611 52 68 2.0 8.0 0.00 0.12 0.03 85 1020.7
20220126013043 52 67 2.0 8.0 0.00 0.12 0.03 85 1020.6
20220126011556 52 11 2.0 8.0 0.00 0.12 0.03 86 1020.5
20220126010041 52 0 1.0 6.0 0.00 0.12 0.03 86 1020.4
20220126004534 52 350 1.0 4.0 0.00 0.16 0.03 86 1020.2
20220126003049 52 48 1.0 6.0 0.00 0.16 0.03 86 1019.7
20220126001529 52 49 2.0 9.0 0.00 0.16 0.03 85 1019.5
20220126000047 53 348 1.0 8.0 0.00 0.16 0.03 86 1019.2
20220125234546 53 23 2.0 8.0 0.00 0.19 0.03 85 1019.1
20220125233057 53 77 1.0 9.0 0.00 0.19 0.03 84 1018.8
20220125231603 54 282 1.0 9.0 0.00 0.19 0.03 84 1018.7
20220125230057 54 0 2.0 8.0 0.00 0.19 0.03 84 1018.7
20220125224604 55 360 3.0 9.0 0.00 0.21 0.03 83 1018.3
20220125223026 55 60 1.0 6.0 0.00 0.21 0.03 83 1018.0
20220125221525 56 360 1.0 5.0 0.00 0.21 0.03 83 1017.7
20220125220101 56 360 1.0 6.0 0.00 0.21 0.03 82 1017.5
20220125214558 56 360 3.0 6.0 0.00 0.21 0.03 81 1017.2
20220125213057 57 15 2.0 6.0 0.00 0.21 0.03 81 1017.1
20220125211536 57 63 1.0 7.0 0.00 0.21 0.03 81 1017.0
20220125210025 57 13 1.0 9.0 0.00 0.21 0.03 81 1017.0
20220125204522 57 360 1.0 7.0 0.00 0.25 0.03 82 1016.8
20220125203048 57 24 2.0 6.0 0.00 0.25 0.03 83 1016.8
20220125201559 57 274 3.0 8.0 0.00 0.25 0.03 82 1016.8
20220125200033 58 279 1.0 7.0 0.00 0.25 0.03 81 1016.8
20220125194529 58 341 2.0 6.0 0.00 0.28 0.03 79 1016.7
20220125193031 58 360 2.0 6.0 0.00 0.28 0.03 80 1016.7
20220125191527 57 315 2.0 8.0 0.00 0.28 0.03 81 1016.8
20220125190046 56 351 2.0 7.0 0.00 0.28 0.03 82 1016.9
20220125184605 56 15 4.0 11.0 0.00 0.32 0.03 83 1017.0
20220125183037 56 32 3.0 10.0 0.00 0.32 0.03 84 1017.2
20220125181634 55 284 1.0 7.0 0.00 0.32 0.03 87 1017.3
20220125180035 54 341 1.0 9.0 0.00 0.32 0.03 87 1017.5
20220125174531 54 22 3.0 9.0 0.00 0.40 0.03 87 1017.5
20220125173055 53 15 1.0 9.0 0.01 0.40 0.03 90 1017.5
20220125171600 52 329 1.0 7.0 0.01 0.40 0.03 91 1017.7
20220125170129 52 305 2.0 9.0 0.01 0.40 0.03 92 1017.6
20220125164527 52 0 1.0 10.0 0.01 0.44 0.03 93 1017.7
20220125163100 51 49 3.0 8.0 0.00 0.43 0.02 94 1018.0
20220125161530 50 26 2.0 8.0 0.00 0.43 0.02 94 1017.9
20220125160119 50 351 1.0 5.0 0.00 0.43 0.02 95 1017.7
20220125154549 49 286 2.0 9.0 0.00 0.44 0.02 95 1017.6
20220125153036 49 28 2.0 8.0 0.00 0.44 0.02 95 1017.4
20220125151527 49 338 2.0 9.0 0.00 0.44 0.02 95 1017.1
20220125150102 49 305 1.0 8.0 0.00 0.44 0.02 95 1016.8
20220125144537 49 348 2.0 9.0 0.00 0.44 0.02 95 1016.6
20220125143031 49 351 1.0 8.0 0.00 0.44 0.02 95 1016.2
20220125141739 48 340 1.0 4.0 0.00 0.44 0.02 95 1015.9
20220125140057 48 360 1.0 7.0 0.01 0.44 0.02 95 1015.7
20220125134525 48 24 2.0 9.0 0.01 0.44 0.02 95 1015.3
20220125133051 48 308 1.0 5.0 0.01 0.44 0.02 95 1015.2
20220125131541 48 279 0.0 7.0 0.01 0.44 0.02 95 1015.3
20220125130050 48 0 0.0 4.0 0.00 0.43 0.01 95 1015.3
20220125124525 48 0 0.0 1.0 0.00 0.43 0.01 95 1015.2
20220125123055 48 314 0.0 4.0 0.00 0.43 0.01 95 1014.7
20220125121529 47 0 0.0 1.0 0.00 0.43 0.01 95 1014.1
20220125120035 47 0 0.0 3.0 0.00 0.43 0.01 95 1013.8
20220125114527 47 0 0.0 4.0 0.00 0.43 0.01 95 1013.7
20220125113034 47 352 1.0 3.0 0.00 0.43 0.01 95 1013.4
20220125111540 47 0 0.0 4.0 0.00 0.43 0.01 95 1013.4
20220125110046 47 0 0.0 4.0 0.00 0.43 0.01 95 1013.3
20220125104556 47 267 1.0 5.0 0.00 0.43 0.01 95 1013.1
20220125103030 47 284 0.0 3.0 0.00 0.43 0.01 95 1013.2
20220125101526 47 0 1.0 5.0 0.00 0.43 0.01 95 1013.3
20220125100058 47 0 0.0 4.0 0.00 0.43 0.01 95 1013.2
20220125094535 47 0 0.0 3.0 0.00 0.43 0.01 95 1013.1
20220125093120 47 0 0.0 2.0 0.01 0.43 0.01 95 1012.8
20220125091538 47 0 0.0 2.0 0.01 0.43 0.01 95 1012.7
20220125090103 46 0 0.0 3.0 0.01 0.43 0.01 95 1012.5
20220125084529 46 0 0.0 3.0 0.01 0.43 0.01 95 1012.5
20220125083043 46 306 0.0 3.0 0.00 0.42 0.00 95 1012.4
20220125081532 46 22 0.0 4.0 0.00 0.42 0.00 95 1012.4
20220125080031 46 9 1.0 5.0 0.00 0.42 0.00 95 1012.3
20220125074535 46 0 1.0 4.0 0.00 0.42 0.00 95 1012.2
20220125073042 46 350 1.0 3.0 0.00 0.42 0.00 95 1012.1
20220125071705 46 0 0.0 3.0 0.00 0.42 0.00 95 1012.2
20220125070029 46 102 1.0 3.0 0.00 0.42 0.00 95 1012.2
20220125064529 46 331 0.0 3.0 0.00 0.42 0.00 95 1011.9
20220125063103 46 0 0.0 2.0 0.00 0.42 0.00 94 1011.7
20220125061557 46 10 0.0 2.0 0.00 0.42 0.00 94 1012.0
20220125060033 46 240 1.0 3.0 0.00 0.42 0.00 94 1012.0
20220125054543 46 34 1.0 5.0 0.00 0.42 0.42 94 1012.1
20220125053037 46 0 1.0 3.0 0.00 0.42 0.42 94 1012.9